TimePST,TemperatureF,Dew PointF,Humidity,Sea Level PressureIn,VisibilityMPH,Wind Direction,Wind SpeedMPH,Gust SpeedMPH,PrecipitationIn,Events,Conditions,WindDirDegrees,DateUTC
12:53 AM,23.0,19.9,88,30.40,10.0,Calm,Calm,-,N/A,,Clear,0,2012-11-26 08:53:00
1:53 AM,23.0,19.9,88,30.40,10.0,Calm,Calm,-,N/A,,Clear,0,2012-11-26 09:53:00
2:53 AM,23.0,19.9,88,30.38,10.0,WNW,3.5,-,N/A,,Clear,300,2012-11-26 10:53:00
3:53 AM,23.0,19.0,85,30.38,10.0,Calm,Calm,-,N/A,,Clear,0,2012-11-26 11:53:00
4:53 AM,21.9,19.0,89,30.38,10.0,Calm,Calm,-,N/A,,Clear,0,2012-11-26 12:53:00
5:53 AM,21.0,18.0,88,30.39,10.0,Calm,Calm,-,N/A,,Clear,0,2012-11-26 13:53:00
6:53 AM,19.9,17.1,89,30.38,10.0,Calm,Calm,-,N/A,,Partly Cloudy,0,2012-11-26 14:53:00
7:05 AM,21.2,19.4,93,30.32,10.0,WNW,3.5,-,N/A,,Mostly Cloudy,300,2012-11-26 15:05:00
7:35 AM,21.2,19.4,93,30.32,10.0,Calm,Calm,-,N/A,,Scattered Clouds,0,2012-11-26 15:35:00
7:44 AM,23.0,19.4,86,30.32,10.0,WNW,3.5,-,N/A,,Mostly Cloudy,290,2012-11-26 15:44:00
7:53 AM,24.1,21.0,88,30.38,10.0,NW,3.5,-,N/A,,Mostly Cloudy,320,2012-11-26 15:53:00
8:53 AM,27.0,24.1,89,30.38,10.0,Calm,Calm,-,N/A,,Mostly Cloudy,0,2012-11-26 16:53:00
9:09 AM,28.4,24.8,86,30.32,10.0,Calm,Calm,-,N/A,,Scattered Clouds,0,2012-11-26 17:09:00
9:27 AM,28.4,24.8,86,30.32,10.0,Calm,Calm,-,N/A,,Mostly Cloudy,0,2012-11-26 17:27:00
9:53 AM,28.9,25.0,85,30.36,10.0,Calm,Calm,-,N/A,,Overcast,0,2012-11-26 17:53:00
10:53 AM,30.0,27.0,88,30.35,10.0,Calm,Calm,-,N/A,,Overcast,0,2012-11-26 18:53:00
11:53 AM,30.9,28.0,89,30.33,10.0,South,4.6,-,N/A,,Overcast,170,2012-11-26 19:53:00
12:53 PM,32.0,28.0,85,30.31,10.0,Calm,Calm,-,N/A,,Mostly Cloudy,0,2012-11-26 20:53:00
1:22 PM,33.8,28.4,81,30.25,10.0,SSE,3.5,-,N/A,,Scattered Clouds,160,2012-11-26 21:22:00
1:53 PM,33.1,28.0,82,30.28,10.0,SSE,4.6,-,N/A,,Partly Cloudy,160,2012-11-26 21:53:00
2:53 PM,33.1,28.0,82,30.28,10.0,SE,4.6,-,N/A,,Scattered Clouds,130,2012-11-26 22:53:00
3:04 PM,33.8,28.4,81,30.22,10.0,SSE,6.9,-,N/A,,Scattered Clouds,150,2012-11-26 23:04:00
3:53 PM,30.9,28.0,89,30.28,10.0,SSE,5.8,-,N/A,,Clear,160,2012-11-26 23:53:00
4:13 PM,30.2,28.4,93,30.22,10.0,SSE,5.8,-,N/A,,Mostly Cloudy,160,2012-11-27 00:13:00
4:53 PM,30.0,28.0,92,30.29,10.0,South,5.8,-,N/A,,Overcast,190,2012-11-27 00:53:00
5:12 PM,30.2,28.4,93,30.23,10.0,Calm,Calm,-,N/A,,Mostly Cloudy,0,2012-11-27 01:12:00
5:53 PM,30.9,28.0,89,30.29,10.0,Calm,Calm,-,N/A,,Overcast,0,2012-11-27 01:53:00
6:53 PM,30.9,28.0,89,30.29,10.0,Calm,Calm,-,N/A,,Overcast,0,2012-11-27 02:53:00
7:53 PM,30.9,28.0,89,30.29,10.0,Calm,Calm,-,N/A,,Overcast,0,2012-11-27 03:53:00
8:53 PM,30.9,28.0,89,30.30,10.0,Calm,Calm,-,N/A,,Overcast,0,2012-11-27 04:53:00
9:53 PM,30.9,28.0,89,30.30,10.0,Calm,Calm,-,N/A,,Overcast,0,2012-11-27 05:53:00
10:53 PM,30.0,28.0,92,30.30,10.0,SSE,3.5,-,N/A,,Overcast,160,2012-11-27 06:53:00
11:53 PM,30.0,27.0,88,30.30,10.0,South,3.5,-,N/A,,Overcast,170,2012-11-27 07:53:00